When you browse on this site, cookies collect data to enhance your experience and personalize the content and advertising you see.
Visit our Privacy Policy to learn more. By continuing to use the site, you agree to this use of cookies and data.
  • In Romania
  • List of Countries
  • For 7 days
  • Water Temperature
  • Satellite Maps
  • Weather Map
  • Weather Widgets
  • user-avatar
    Login

    Hourly Weather Acerenza

    Today, 16 February, Saturday

    Time Temperature Precipitation Wind Pressure Humidity
    00:00 +1°C° 0 mm 2 mps 706 mmHg 88%
    01:00 +1°C° 0 mm 2 mps 706 mmHg 88%
    02:00 +1°C° 0 mm 2 mps 707 mmHg 88%
    03:00 -1°C° 0 mm 2 mps 707 mmHg 89%
    04:00 -1°C° 0 mm 2 mps 707 mmHg 90%
    05:00 -1°C° 0 mm 2 mps 707 mmHg 90%
    06:00 -1°C° 0 mm 2 mps 707 mmHg 91%
    07:00 -1°C° 0 mm 2 mps 707 mmHg 91%
    08:00 +2°C° 0 mm 2 mps 708 mmHg 85%
    09:00 +2°C° 0 mm 3 mps 708 mmHg 78%
    10:00 +4°C° 0 mm 3 mps 709 mmHg 71%
    11:00 +5°C° 0 mm 3 mps 709 mmHg 67%
    12:00 +6°C° 0 mm 4 mps 709 mmHg 63%
    13:00 +7°C° 0 mm 4 mps 710 mmHg 60%
    14:00 +7°C° 0 mm 4 mps 709 mmHg 61%
    15:00 +8°C° 0 mm 3 mps 709 mmHg 63%
    16:00 +8°C° 0 mm 3 mps 709 mmHg 65%
    17:00 +5°C° 0 mm 3 mps 709 mmHg 73%
    18:00 +4°C° 0 mm 2 mps 708 mmHg 80%
    19:00 +3°C° 0 mm 2 mps 708 mmHg 88%
    20:00 +3°C° 0 mm 1 mps 708 mmHg 88%
    21:00 +3°C° 0 mm 1 mps 708 mmHg 89%
    22:00 +2°C° 0 mm 1 mps 708 mmHg 90%
    23:00 +2°C° 0 mm 1 mps 708 mmHg 85%

    Tomorrow, 17 February, Sunday

    Time Temperature Precipitation Wind Pressure Humidity
    00:00 +2°C° 0 mm 1 mps 708 mmHg 81%
    01:00 +2°C° 0 mm 1 mps 708 mmHg 77%
    02:00 +2°C° 0 mm 1 mps 708 mmHg 71%
    03:00 +2°C° 0 mm 1 mps 707 mmHg 65%
    04:00 +2°C° 0 mm 1 mps 707 mmHg 59%
    05:00 +2°C° 0 mm 1 mps 707 mmHg 55%
    06:00 +2°C° 0 mm 1 mps 707 mmHg 51%
    07:00 +2°C° 0 mm 1 mps 707 mmHg 47%
    08:00 +4°C° 0 mm 1 mps 708 mmHg 43%
    09:00 +7°C° 0 mm 1 mps 709 mmHg 39%
    10:00 +9°C° 0 mm 1 mps 709 mmHg 35%
    11:00 +10°C° 0 mm 2 mps 709 mmHg 34%
    12:00 +12°C° 0 mm 2 mps 709 mmHg 33%
    13:00 +13°C° 0 mm 2 mps 709 mmHg 32%
    14:00 +12°C° 0 mm 2 mps 709 mmHg 37%
    15:00 +12°C° 0 mm 2 mps 708 mmHg 41%
    16:00 +12°C° 0 mm 2 mps 708 mmHg 46%
    17:00 +9°C° 0 mm 2 mps 708 mmHg 52%
    18:00 +7°C° 0 mm 1 mps 707 mmHg 59%
    19:00 +5°C° 0 mm 1 mps 707 mmHg 65%
    20:00 +5°C° 0 mm 1 mps 707 mmHg 66%
    21:00 +4°C° 0 mm 1 mps 707 mmHg 67%
    22:00 +4°C° 0 mm 1 mps 707 mmHg 69%
    23:00 +3°C° 0 mm 2 mps 707 mmHg 70%

    Day after tomorrow, 18 February, Monday

    Time Temperature Precipitation Wind Pressure Humidity
    00:00 +3°C° 0 mm 2 mps 706 mmHg 71%
    01:00 +2°C° 0 mm 2 mps 706 mmHg 72%
    02:00 +2°C° 0 mm 2 mps 706 mmHg 73%
    03:00 +2°C° 0 mm 2 mps 706 mmHg 75%
    04:00 +2°C° 0 mm 2 mps 705 mmHg 76%
    05:00 +2°C° 0 mm 2 mps 705 mmHg 76%
    06:00 +2°C° 0 mm 2 mps 705 mmHg 77%
    07:00 +2°C° 0 mm 2 mps 705 mmHg 77%
    08:00 +5°C° 0 mm 1 mps 706 mmHg 69%
    09:00 +8°C° 0 mm 1 mps 707 mmHg 61%
    10:00 +11°C° 0 mm 1 mps 707 mmHg 52%
    11:00 +12°C° 0 mm 1 mps 707 mmHg 48%
    12:00 +13°C° 0 mm 1 mps 707 mmHg 44%
    13:00 +14°C° 0 mm 1 mps 707 mmHg 40%
    14:00 +14°C° 0 mm 1 mps 707 mmHg 43%
    15:00 +13°C° 0 mm 1 mps 707 mmHg 46%
    16:00 +13°C° 0 mm 1 mps 706 mmHg 49%
    17:00 +11°C° 0 mm 1 mps 706 mmHg 57%
    18:00 +9°C° 0 mm 1 mps 706 mmHg 65%
    19:00 +6°C° 0 mm 0 mps 705 mmHg 73%
    20:00 +6°C° 0 mm 1 mps 705 mmHg 75%
    21:00 +6°C° 0 mm 1 mps 706 mmHg 77%
    22:00 +5°C° 0 mm 1 mps 706 mmHg 80%
    23:00 +5°C° 0 mm 1 mps 706 mmHg 81%

    19 February, Tuesday

    Time Temperature Precipitation Wind Pressure Humidity
    00:00 +5°C° 0 mm 1 mps 705 mmHg 82%
    01:00 +4°C° 0 mm 1 mps 705 mmHg 84%
    02:00 +4°C° 0 mm 1 mps 705 mmHg 84%
    03:00 +4°C° 0 mm 1 mps 705 mmHg 85%
    04:00 +4°C° 0 mm 1 mps 705 mmHg 85%
    05:00 +4°C° 0 mm 1 mps 705 mmHg 85%
    06:00 +4°C° 0 mm 1 mps 705 mmHg 85%
    07:00 +3°C° 0 mm 1 mps 705 mmHg 85%
    08:00 +6°C° 0 mm 1 mps 706 mmHg 75%
    09:00 +8°C° 0 mm 1 mps 706 mmHg 66%
    10:00 +11°C° 0 mm 1 mps 707 mmHg 57%
    11:00 +12°C° 0 mm 1 mps 707 mmHg 52%
    12:00 +13°C° 0 mm 1 mps 707 mmHg 47%
    13:00 +14°C° 0 mm 1 mps 707 mmHg 42%
    14:00 +14°C° 0 mm 1 mps 707 mmHg 44%
    15:00 +14°C° 0 mm 1 mps 707 mmHg 45%
    16:00 +13°C° 0 mm 1 mps 706 mmHg 47%
    17:00 +11°C° 0 mm 1 mps 706 mmHg 57%
    18:00 +9°C° 0 mm 1 mps 706 mmHg 67%
    19:00 +7°C° 0 mm 1 mps 705 mmHg 77%
    20:00 +6°C° 0 mm 1 mps 705 mmHg 78%
    21:00 +6°C° 0 mm 1 mps 706 mmHg 79%
    22:00 +5°C° 0 mm 1 mps 706 mmHg 80%
    23:00 +5°C° 0 mm 1 mps 705 mmHg 80%

    20 February, Wednesday

    Time Temperature Precipitation Wind Pressure Humidity
    00:00 +5°C° 0 mm 1 mps 705 mmHg 80%
    01:00 +4°C° 0 mm 1 mps 705 mmHg 79%
    02:00 +4°C° 0 mm 1 mps 705 mmHg 79%
    03:00 +4°C° 0 mm 1 mps 705 mmHg 78%
    04:00 +4°C° 0 mm 1 mps 705 mmHg 77%
    05:00 +4°C° 0 mm 1 mps 705 mmHg 76%
    06:00 +4°C° 0 mm 1 mps 705 mmHg 74%
    07:00 +3°C° 0 mm 1 mps 705 mmHg 73%
    08:00 +6°C° 0 mm 1 mps 706 mmHg 67%
    09:00 +7°C° 0 mm 0 mps 707 mmHg 61%
    10:00 +10°C° 0 mm 0 mps 708 mmHg 55%
    11:00 +11°C° 0 mm 1 mps 708 mmHg 53%
    12:00 +12°C° 0 mm 1 mps 708 mmHg 51%
    13:00 +13°C° 0 mm 1 mps 708 mmHg 49%
    14:00 +13°C° 0 mm 2 mps 708 mmHg 51%
    15:00 +13°C° 0 mm 2 mps 707 mmHg 53%
    16:00 +12°C° 0 mm 3 mps 707 mmHg 56%
    17:00 +10°C° 0 mm 2 mps 707 mmHg 66%
    18:00 +8°C° 0 mm 2 mps 707 mmHg 76%
    19:00 +7°C° 0 mm 1 mps 707 mmHg 86%
    20:00 +6°C° 0 mm 1 mps 707 mmHg 87%
    21:00 +5°C° 0 mm 0 mps 707 mmHg 88%
    22:00 +4°C° 0 mm 0 mps 707 mmHg 89%
    23:00 +4°C° 0 mm 0 mps 707 mmHg 90%

    21 February, Thursday

    Time Temperature Precipitation Wind Pressure Humidity
    00:00 +4°C° 0 mm 0 mps 707 mmHg 90%
    01:00 +4°C° 0 mm 0 mps 707 mmHg 90%
    02:00 +3°C° 0 mm 0 mps 707 mmHg 90%
    03:00 +3°C° 0 mm 0 mps 706 mmHg 91%
    04:00 +3°C° 0 mm 0 mps 706 mmHg 91%
    05:00 +3°C° 0 mm 0 mps 706 mmHg 91%
    06:00 +3°C° 0 mm 0 mps 707 mmHg 92%
    07:00 +2°C° 0 mm 0 mps 707 mmHg 92%
    08:00 +6°C° 0 mm 1 mps 707 mmHg 83%
    09:00 +8°C° 0 mm 1 mps 708 mmHg 75%
    10:00 +10°C° 0 mm 1 mps 708 mmHg 67%
    11:00 +11°C° 0 mm 1 mps 708 mmHg 62%
    12:00 +12°C° 0 mm 1 mps 708 mmHg 56%
    13:00 +12°C° 0 mm 2 mps 708 mmHg 51%
    14:00 +12°C° 0 mm 2 mps 708 mmHg 52%
    15:00 +12°C° 0 mm 2 mps 708 mmHg 54%
    16:00 +12°C° 0 mm 2 mps 707 mmHg 55%
    17:00 +9°C° 0 mm 2 mps 707 mmHg 63%
    18:00 +8°C° 0 mm 1 mps 707 mmHg 71%
    19:00 +5°C° 0 mm 0 mps 707 mmHg 79%
    20:00 +4°C° 0 mm 0 mps 707 mmHg 80%
    21:00 +5°C° 0 mm 1 mps 707 mmHg 81%
    22:00 +5°C° 0 mm 1 mps 707 mmHg 82%
    23:00 +5°C° 0 mm 1 mps 707 mmHg 82%
    Show more